Location: Finkenbach
(49.5340°N, 8.9188°E)
Time: 20:03:08
(UTC+00:00)

RESURS DK-1 - Pass Details

Date: 17 June 2025
Orbit: 531 x 535 km, 69.9° (Epoch: 16 July)

Event Time Altitude Azimuth Distance (km) Brightness Sun altitude
Rises 21:08:48 0° 225° (SW) 2,676 5.7 -11.0°
Reaches altitude 10° 21:11:02 10° 231° (SW) 1,789 4.9 -11.2°
Maximum altitude 21:14:53 46° 306° (NW) 729 3.4 -11.5°
Drops below altitude 10° 21:18:46 10° 21° (NNE) 1,800 5.5 -11.8°
Sets 21:21:01 0° 27° (NNE) 2,695 6.3 -12.0°
